This demonstration page uses our WeatherBlox Daily Observations layout. Learn more.

Left ArrowRight Arrow

36.19886, -115.1175

Hourly Observations for April 7, 2021

Temp ( °F °C ) Dew Point ( °F °C ) Humidity (%) Winds ( mph kmh ) Pressure ( in mb ) Visibility ( mi km ) Precip ( " mm )
12:53 am 00:53 Clear 60 15.6 17 -8.3 19 19 NNW 6 9 29.99 1016 10 16 N/A
1:53 am 01:53 Clear 59 15 15 -9.4 18 18 NW 5 7 29.98 1015 10 16 N/A
2:53 am 02:53 Clear 58 14.4 16 -8.9 19 19 NNW 5 7 29.98 1015 10 16 N/A
3:53 am 03:53 Clear 57 13.9 13 -10.6 17 17 NNW 5 7 29.98 1015 10 16 N/A
4:53 am 04:53 Clear 55 12.8 14 -10 20 20 WNW 6 9 29.99 1016 10 16 N/A
5:53 am 05:53 Clear 56 13.3 19 -7.2 24 24 N N/A 30.01 1016 10 16 N/A
6:53 am 06:53 Sunny 55 12.8 16 -8.9 21 21 NW 3 6 30.04 1017 10 16 N/A
7:53 am 07:53 Sunny 61 16.1 15 -9.4 17 17 SW 5 7 30.04 1017 10 16 N/A
8:53 am 08:53 Sunny 66 18.9 11 -11.7 11 11 S 6 9 30.05 1018 10 16 N/A
9:53 am 09:53 Sunny 69 20.6 7 -13.9 9 9 ESE 5 7 30.05 1018 10 16 N/A
10:53 am 10:53 Sunny 74 23.3 3 -16.1 6 6 E 7 11 30.05 1018 10 16 N/A
11:53 am 11:53 Sunny 77 25 6 -14.4 6 6 ESE 7 11 30.02 1017 10 16 N/A
12:53 pm 12:53 Sunny 79 26.1 6 -14.4 6 6 ESE 10 17 29.98 1015 10 16 N/A
1:53 pm 13:53 Sunny 81 27.2 8 -13.3 6 6 VRB 3 6 29.96 1014 10 16 N/A
2:53 pm 14:53 Sunny 82 27.8 10 -12.2 6 6 SE 7 11 29.92 1013 10 16 N/A
3:53 pm 15:53 Sunny 84 28.9 10 -12.2 6 6 ESE 8 13 29.88 1012 10 16 N/A
4:53 pm 16:53 Sunny 86 30 10 -12.2 6 6 ESE 10 17 29.84 1011 10 16 N/A
5:53 pm 17:53 Sunny 86 30 10 -12.2 6 6 WSW 9 15 29.83 1010 10 16 N/A
6:14 pm 18:14 Sunny 85 29.4 8 -13.3 5 5 SW 10 17 29.67 1005 10 16 N/A
6:53 pm 18:53 Sunny 84 28.9 10 -12.2 6 6 SW 13 20 29.81 1010 10 16 N/A
7:53 pm 19:53 Clear 83 28.3 15 -9.4 8 8 WSW 9 15 29.79 1009 10 16 N/A
8:53 pm 20:53 Clear 79 26.1 15 -9.4 9 9 SE 6 9 29.80 1009 10 16 N/A
9:53 pm 21:53 Clear 79 26.1 23 -5 12 12 S 5 7 29.79 1009 10 16 N/A
10:53 pm 22:53 Clear 77 25 23 -5 13 13 S 7 11 29.78 1008 10 16 N/A
11:53 pm 23:53 Clear 71 21.7 21 -6.1 15 15 WNW 5 7 29.80 1009 10 16 N/A

Powered by AerisWeather